Weather History for PAAQ - August, 2013

Change the Weather History Date:

Monday, August 19, 2013

  Actual Average Record
Temperature  
Mean Temperature 54 °F -  
Max Temperature 55 °F 63 °F 73 °F (1974)
Min Temperature 52 °F 46 °F 32 °F (1969)
Degree Days  
Heating Degree Days 12    
Growing Degree Days 4 (Base 50)    
Moisture  
Dew Point 46 °F    
Average Humidity 77    
Maximum Humidity 90    
Minimum Humidity 69    
Precipitation  
Precipitation 0.23 in - - ()
Sea Level Pressure  
Sea Level Pressure 29.71 in    
Wind  
Wind Speed 7 mph (East)    
Max Wind Speed 12 mph    
Max Gust Speed 16 mph    
Visibility 10 miles    
Events Rain    
Averages and records for this station are not official NWS values.
T = Trace of Precipitation, MM = Missing Value Source: NWS Daily Summary

Daily Weather History Graph

Daily Weather History Graph

Search for Another Location

Airport or City:

Trip Planner

Search our weather history database for the weather conditions in past years. The results will help you decide how hot, cold, wet, or windy it might be!

Date:

Astronomy

Aug. 19, 2013 Rise Set
Actual Time 6:14 AM AKDT 9:43 PM AKDT
Civil Twilight 5:21 AM AKDT 10:36 PM AKDT
Nautical Twilight 4:01 AM AKDT 11:53 PM AKDT
Astronomical Twilight 2:32 AM AKDT 1:27 AM AKDT
Moon 8:36 PM AKDT (8/19) 4:36 AM AKDT (8/19)
Length of Visible Light 17h 14m
Length of Day
15h 29m
Waxing Gibbous, 98% of the Moon is Illuminated
Aug 19
Waxing Gibbous
Aug 20
Full
Aug 28
Last Quarter
Sep 5
New
Sep 12
First Quarter

Hourly Weather History & Observations

Time (AKDT) Temp. Dew Point Humidity Pressure Visibility Wind Dir Wind Speed Gust Speed Precip Events Conditions
12:53 AM 54.0 °F 44.1 °F 69% 29.67 in 10.0 mi ENE 11.5 mph 16.1 mph N/A   Overcast
1:53 AM 54.0 °F 44.1 °F 69% 29.67 in 10.0 mi East 11.5 mph - N/A   Overcast
2:53 AM 53.1 °F 44.1 °F 71% 29.68 in 10.0 mi East 3.5 mph - N/A   Overcast
3:53 AM 53.1 °F 44.1 °F 71% 29.68 in 10.0 mi Variable 4.6 mph - N/A   Overcast
4:53 AM 52.0 °F 44.1 °F 74% 29.67 in 10.0 mi ENE 5.8 mph - N/A   Overcast
5:53 AM 53.1 °F 43.0 °F 69% 29.67 in 10.0 mi ENE 4.6 mph - N/A   Overcast
6:53 AM 53.1 °F 43.0 °F 69% 29.67 in 10.0 mi NE 5.8 mph - N/A   Overcast
7:53 AM 53.1 °F 43.0 °F 69% 29.67 in 10.0 mi East 9.2 mph - N/A   Overcast
8:53 AM 53.1 °F 43.0 °F 69% 29.68 in 10.0 mi ESE 8.1 mph - N/A   Overcast
9:53 AM 54.0 °F 46.9 °F 77% 29.69 in 10.0 mi East 8.1 mph - N/A   Overcast
10:53 AM 55.0 °F 46.0 °F 72% 29.70 in 10.0 mi East 3.5 mph - 0.00 in Rain Light Rain
11:53 AM 53.1 °F 48.9 °F 86% 29.71 in 10.0 mi North 5.8 mph - 0.03 in Rain Light Rain
12:53 PM 54.0 °F 48.0 °F 80% 29.71 in 10.0 mi ENE 4.6 mph - 0.02 in Rain Light Rain
1:53 PM 54.0 °F 48.9 °F 83% 29.73 in 6.0 mi East 4.6 mph - 0.02 in Rain Light Rain
2:53 PM 54.0 °F 51.1 °F 90% 29.73 in 9.0 mi ENE 4.6 mph - 0.08 in Rain Light Rain
3:53 PM 55.0 °F 50.0 °F 83% 29.73 in 10.0 mi NNE 6.9 mph - 0.00 in   Overcast
4:53 PM 55.0 °F 48.9 °F 80% 29.73 in 10.0 mi Calm Calm - 0.02 in   Overcast
5:53 PM 54.0 °F 48.9 °F 83% 29.74 in 9.0 mi East 3.5 mph - 0.04 in Rain Light Rain
6:53 PM 55.0 °F 48.0 °F 77% 29.74 in 10.0 mi East 8.1 mph - 0.00 in Rain Light Rain
7:53 PM 53.1 °F 46.9 °F 80% 29.74 in 10.0 mi ESE 10.4 mph - 0.01 in Rain Light Rain
8:53 PM 53.1 °F 46.9 °F 80% 29.76 in 10.0 mi SE 3.5 mph - 0.01 in Rain Light Rain
9:53 PM 52.0 °F 46.9 °F 83% 29.77 in 10.0 mi ENE 6.9 mph - 0.00 in   Overcast
10:53 PM 52.0 °F 46.0 °F 80% 29.77 in 10.0 mi East 8.1 mph - N/A   Overcast
11:53 PM 52.0 °F 46.0 °F 80% 29.78 in 10.0 mi East 8.1 mph - 0.00 in Rain Light Rain